Hourly Weather Jizzax

Today, 27 September, Sunday

Time Temperature Precipitation Wind Pressure Humidity
00:00 +15°C° 0 mm 1 mps 726 mmHg 30%
01:00 +14°C° 0 mm 1 mps 726 mmHg 31%
02:00 +14°C° 0 mm 1 mps 726 mmHg 32%
03:00 +13°C° 0 mm 1 mps 726 mmHg 34%
04:00 +13°C° 0 mm 1 mps 726 mmHg 35%
05:00 +12°C° 0 mm 1 mps 726 mmHg 38%
06:00 +13°C° 0 mm 1 mps 726 mmHg 35%
07:00 +14°C° 0 mm 1 mps 727 mmHg 32%
08:00 +16°C° 0 mm 1 mps 727 mmHg 29%
09:00 +18°C° 0 mm 2 mps 727 mmHg 26%
10:00 +20°C° 0 mm 2 mps 727 mmHg 23%
11:00 +22°C° 0 mm 3 mps 728 mmHg 20%
12:00 +24°C° 0 mm 3 mps 727 mmHg 19%
13:00 +25°C° 0 mm 3 mps 727 mmHg 18%
14:00 +26°C° 0 mm 3 mps 727 mmHg 17%
15:00 +26°C° 0 mm 3 mps 727 mmHg 17%
16:00 +25°C° 0 mm 3 mps 727 mmHg 17%
17:00 +25°C° 0 mm 3 mps 727 mmHg 18%
18:00 +22°C° 0 mm 3 mps 727 mmHg 21%
19:00 +19°C° 0 mm 2 mps 727 mmHg 24%
20:00 +17°C° 0 mm 2 mps 727 mmHg 27%
21:00 +16°C° 0 mm 1 mps 727 mmHg 28%
22:00 +16°C° 0 mm 1 mps 727 mmHg 29%
23:00 +15°C° 0 mm 1 mps 727 mmHg 30%

Tomorrow, 28 September, Monday

Time Temperature Precipitation Wind Pressure Humidity
00:00 +15°C° 0 mm 1 mps 727 mmHg 31%
01:00 +14°C° 0 mm 1 mps 727 mmHg 33%
02:00 +14°C° 0 mm 1 mps 727 mmHg 34%
03:00 +13°C° 0 mm 1 mps 727 mmHg 35%
04:00 +12°C° 0 mm 1 mps 728 mmHg 36%
05:00 +12°C° 0 mm 1 mps 728 mmHg 38%
06:00 +13°C° 0 mm 1 mps 728 mmHg 35%
07:00 +14°C° 0 mm 1 mps 728 mmHg 32%
08:00 +16°C° 0 mm 1 mps 729 mmHg 29%
09:00 +17°C° 0 mm 2 mps 729 mmHg 26%
10:00 +19°C° 0 mm 2 mps 729 mmHg 23%
11:00 +21°C° 0 mm 3 mps 729 mmHg 20%
12:00 +22°C° 0 mm 3 mps 729 mmHg 19%
13:00 +24°C° 0 mm 3 mps 729 mmHg 18%
14:00 +24°C° 0 mm 3 mps 729 mmHg 16%
15:00 +24°C° 0 mm 3 mps 729 mmHg 17%
16:00 +24°C° 0 mm 3 mps 730 mmHg 17%
17:00 +23°C° 0 mm 2 mps 730 mmHg 18%
18:00 +21°C° 0 mm 2 mps 730 mmHg 20%
19:00 +20°C° 0 mm 2 mps 730 mmHg 22%
20:00 +19°C° 0 mm 1 mps 730 mmHg 24%
21:00 +19°C° 0 mm 1 mps 730 mmHg 24%
22:00 +18°C° 0 mm 1 mps 730 mmHg 25%
23:00 +18°C° 0 mm 1 mps 730 mmHg 26%

Day after tomorrow, 29 September, Tuesday

Time Temperature Precipitation Wind Pressure Humidity
00:00 +18°C° 0 mm 1 mps 730 mmHg 25%
01:00 +18°C° 0 mm 1 mps 730 mmHg 25%
02:00 +18°C° 0 mm 1 mps 730 mmHg 25%
03:00 +17°C° 0.1 mm 2 mps 730 mmHg 31%
04:00 +17°C° 0.1 mm 3 mps 730 mmHg 38%
05:00 +17°C° 0.1 mm 3 mps 730 mmHg 44%
06:00 +17°C° 0.2 mm 3 mps 730 mmHg 49%
07:00 +17°C° 0.2 mm 3 mps 731 mmHg 53%
08:00 +17°C° 0.2 mm 3 mps 731 mmHg 58%
09:00 +18°C° 0.1 mm 3 mps 731 mmHg 56%
10:00 +18°C° 0.1 mm 4 mps 731 mmHg 54%
11:00 +19°C° 0.1 mm 4 mps 731 mmHg 52%
12:00 +19°C° 0.1 mm 3 mps 731 mmHg 53%
13:00 +18°C° 0.1 mm 3 mps 731 mmHg 54%
14:00 +18°C° 0.1 mm 3 mps 730 mmHg 55%
15:00 +17°C° 0.1 mm 2 mps 730 mmHg 58%
16:00 +17°C° 0.1 mm 2 mps 730 mmHg 62%
17:00 +16°C° 0.1 mm 1 mps 730 mmHg 65%
18:00 +16°C° 0.2 mm 1 mps 730 mmHg 69%
19:00 +15°C° 0.2 mm 1 mps 730 mmHg 72%
20:00 +15°C° 0.2 mm 1 mps 730 mmHg 75%
21:00 +15°C° 0.2 mm 2 mps 730 mmHg 74%
22:00 +15°C° 0.2 mm 2 mps 730 mmHg 72%
23:00 +14°C° 0.2 mm 3 mps 730 mmHg 71%

30 September, Wednesday

Time Temperature Precipitation Wind Pressure Humidity
00:00 +14°C° 0.3 mm 3 mps 730 mmHg 73%
01:00 +14°C° 0.3 mm 3 mps 730 mmHg 75%
02:00 +14°C° 0.3 mm 4 mps 730 mmHg 76%
03:00 +14°C° 0.1 mm 3 mps 730 mmHg 75%
04:00 +15°C° 0.1 mm 2 mps 730 mmHg 73%
05:00 +15°C° 0.1 mm 1 mps 730 mmHg 71%
06:00 +15°C° 0 mm 1 mps 731 mmHg 67%
07:00 +16°C° 0 mm 2 mps 731 mmHg 64%
08:00 +16°C° 0 mm 2 mps 731 mmHg 60%
09:00 +18°C° 0 mm 2 mps 731 mmHg 51%
10:00 +19°C° 0 mm 2 mps 731 mmHg 42%
11:00 +20°C° 0 mm 3 mps 731 mmHg 33%
12:00 +21°C° 0 mm 3 mps 731 mmHg 29%
13:00 +22°C° 0 mm 3 mps 730 mmHg 25%
14:00 +23°C° 0 mm 4 mps 730 mmHg 21%
15:00 +24°C° 0 mm 3 mps 730 mmHg 20%
16:00 +24°C° 0 mm 3 mps 730 mmHg 20%
17:00 +24°C° 0 mm 3 mps 729 mmHg 19%
18:00 +21°C° 0 mm 2 mps 729 mmHg 22%
19:00 +19°C° 0 mm 2 mps 730 mmHg 26%
20:00 +18°C° 0 mm 1 mps 730 mmHg 30%
21:00 +16°C° 0 mm 1 mps 729 mmHg 34%
22:00 +15°C° 0 mm 1 mps 729 mmHg 39%
23:00 +15°C° 0 mm 1 mps 729 mmHg 43%

1 October, Thursday

Time Temperature Precipitation Wind Pressure Humidity
00:00 +14°C° 0 mm 1 mps 729 mmHg 45%
01:00 +14°C° 0 mm 1 mps 729 mmHg 48%
02:00 +13°C° 0 mm 1 mps 729 mmHg 50%
03:00 +13°C° 0 mm 1 mps 729 mmHg 49%
04:00 +13°C° 0 mm 1 mps 729 mmHg 48%
05:00 +13°C° 0 mm 1 mps 729 mmHg 47%
06:00 +14°C° 0 mm 1 mps 729 mmHg 42%
07:00 +16°C° 0 mm 1 mps 729 mmHg 37%
08:00 +18°C° 0 mm 1 mps 730 mmHg 31%
09:00 +20°C° 0 mm 1 mps 729 mmHg 29%
10:00 +22°C° 0 mm 1 mps 729 mmHg 26%
11:00 +24°C° 0 mm 1 mps 729 mmHg 23%
12:00 +24°C° 0 mm 1 mps 729 mmHg 21%
13:00 +25°C° 0 mm 1 mps 729 mmHg 20%
14:00 +26°C° 0 mm 1 mps 728 mmHg 18%
15:00 +26°C° 0 mm 1 mps 728 mmHg 17%
16:00 +26°C° 0 mm 1 mps 728 mmHg 17%
17:00 +26°C° 0 mm 1 mps 728 mmHg 16%
18:00 +23°C° 0 mm 1 mps 728 mmHg 21%
19:00 +21°C° 0 mm 1 mps 728 mmHg 27%
20:00 +19°C° 0 mm 1 mps 728 mmHg 32%
21:00 +18°C° 0 mm 1 mps 728 mmHg 35%
22:00 +18°C° 0 mm 1 mps 728 mmHg 37%
23:00 +16°C° 0 mm 1 mps 728 mmHg 40%

2 October, Friday

Time Temperature Precipitation Wind Pressure Humidity
00:00 +16°C° 0 mm 1 mps 728 mmHg 40%
01:00 +15°C° 0 mm 1 mps 728 mmHg 40%
02:00 +15°C° 0 mm 1 mps 728 mmHg 40%
03:00 +15°C° 0 mm 1 mps 728 mmHg 39%
04:00 +14°C° 0 mm 1 mps 728 mmHg 38%
05:00 +14°C° 0 mm 1 mps 728 mmHg 37%
06:00 +16°C° 0 mm 1 mps 729 mmHg 32%
07:00 +18°C° 0 mm 1 mps 729 mmHg 28%
08:00 +19°C° 0 mm 1 mps 729 mmHg 24%
09:00 +21°C° 0 mm 1 mps 729 mmHg 20%
10:00 +23°C° 0 mm 2 mps 729 mmHg 16%
11:00 +25°C° 0 mm 2 mps 729 mmHg 13%
12:00 +25°C° 0 mm 3 mps 729 mmHg 12%
13:00 +26°C° 0 mm 3 mps 729 mmHg 11%
14:00 +27°C° 0 mm 3 mps 729 mmHg 11%
15:00 +27°C° 0 mm 3 mps 729 mmHg 10%
16:00 +26°C° 0 mm 3 mps 729 mmHg 10%
17:00 +26°C° 0 mm 3 mps 729 mmHg 10%
18:00 +24°C° 0 mm 3 mps 729 mmHg 12%
19:00 +21°C° 0 mm 2 mps 729 mmHg 14%
20:00 +18°C° 0 mm 2 mps 729 mmHg 16%
21:00 +18°C° 0 mm 2 mps 729 mmHg 17%
22:00 +18°C° 0 mm 1 mps 729 mmHg 19%
23:00 +16°C° 0 mm 1 mps 729 mmHg 20%
Show more